Weather Roundup
Issued by NWS

Home | Current Version | Previous Version | Text Only | Print | Product List | Glossary On
Versions: 1 2 3 4 5 6 7 8 9 10 11 12 13 14 15 16 17 18 19 20 21 22 23 24 25 26 27 28 29 30 31 32 33 34 35 36 37 38 39 40 41 42 43 44 45 46 47 48 49 50
000
NZUS93 KARX 022110
HRRWXR

CURRENT HOURLY OBSERVATIONS ACROSS
MUCH OF THE UPPER MISSISSIPPI VALLEY
NATIONAL WEATHER SERVICE LA CROSSE WI
400 PM CDT TUE JUN 02 2015


...SOUTHEAST MINNESOTA...


CITY           SKY/WX    TMP DP  RH WIND       PRES   REMARKS
ROCHESTER      CLOUDY    73  53  49 S16G24    30.03F
ROCHESTER/MAYO FAIR      71  50  48 SE15G24   30.02F
WINONA         CLOUDY    73  54  49 S5        30.04F
AUSTIN         MOSUNNY   72  54  53 SE10G22   30.00F
ALBERT LEA     SUNNY     75  52  43 SE18G26   29.98F
DODGE CENTER   PTSUNNY   73  54  49 S21G26    30.00F
PRESTON        CLOUDY    71  51  49 S13       30.04F
OWATONNA       MOSUNNY   73  52  46 S16G26    29.98F
FARIBAULT      PTSUNNY   75  54  46 SE15G24   29.98F
$$

...ELSEWHERE IN MINNESOTA...


CITY           SKY/WX    TMP DP  RH WIND       PRES   REMARKS
MINNEAPOLIS    PTSUNNY   74  52  46 SE21G30   29.95F
INTNL FALLS    LGT RAIN  62  57  83 E5        29.86F
DULUTH         MOSUNNY   72  49  44 S13       29.94F
RED WING       CLOUDY    75  50  41 S13G23    29.98F
REDWOOD FALLS  PTSUNNY   78  54  43 S24G32    29.88F
MANKATO        MOSUNNY   77  52  41 S17G25    29.94F
WORTHINGTON    PTSUNNY   75  55  50 S18G28    29.91F
FAIRMONT       MOSUNNY   75  50  41 S24       29.95F
$$

...SOUTHWEST WISCONSIN...


CITY           SKY/WX    TMP DP  RH WIND       PRES   REMARKS
LA CROSSE      PTSUNNY   74  49  41 S14       30.05F
PRAIRIE DU CHI MOSUNNY   72  47  39 S8        30.06S
BOSCOBEL       MOSUNNY   74  49  41 VRB6      30.06F
LONE ROCK      MOSUNNY   73  41  31 S12       30.07F
PLATTEVILLE    MOSUNNY   72  47  40 S7        30.08F
FORT MC COY    MOSUNNY   74  42  32 S10       30.07S
CAMP DOUGLAS   PTSUNNY   73  43  33 SE9       30.06F
VIROQUA        FAIR      71  46  40 S8        30.07F
WIS DELLS      SUNNY     71  46  40 S8        30.08F
$$

...ELSEWHERE IN WISCONSIN...


CITY           SKY/WX    TMP DP  RH WIND       PRES   REMARKS
MILWAUKEE      MOSUNNY   63  47  55 SE9       30.13F
MADISON        MOSUNNY   72  44  36 S10       30.08F
GREEN BAY      MOSUNNY   71  42  35 S14       30.10F
EAU CLAIRE     MOSUNNY   74  49  41 S13G20    30.01F
BLACK RVR FLS  FAIR      74  41  29 SW8       30.04F
MEDFORD        SUNNY     68  42  37 S6        30.07F
WAUSAU         SUNNY     72  38  29 S10       30.06F
WIS RAPIDS     SUNNY     74  36  25 SW12G17   30.08F
MARSHFIELD     SUNNY     73  36  25 S8        30.07F
RICE LAKE      MOSUNNY   74  48  38 S14       30.01F
$$

...NORTHEAST IOWA...


CITY           SKY/WX    TMP DP  RH WIND       PRES   REMARKS
DECORAH        PTSUNNY   72  50  46 S10       30.05S
MASON CITY     SUNNY     75  54  47 S15G25    30.02F
CHARLES CITY   MOSUNNY   73  52  46 S14G20    30.04F
OELWEIN        PTSUNNY   73  50  43 S9G16     30.06S
$$

...ELSEWHERE IN IOWA...


CITY           SKY/WX    TMP DP  RH WIND       PRES   REMARKS
DES MOINES     CLOUDY    70  56  61 SE16      30.03F
IOWA CITY      PTSUNNY   74  54  49 S13       30.06F
FORT DODGE     MOSUNNY   72  55  56 SE10G17   30.00F
$$

...NORTHERN ILLINOIS...


CITY           SKY/WX    TMP DP  RH WIND       PRES   REMARKS
CHICAGO-OHARE  MOSUNNY   69  40  34 SE8       30.09F
CHICAGO-MIDWAY MOSUNNY   70  48  45 E7        30.10F
MOLINE         SUNNY     74  48  39 S9        30.05F
ROCKFORD       MOSUNNY   74  45  35 S7        30.09F
PEORIA         SUNNY     74  49  41 E8        30.07F
$$

NOTE: "FAIR" INDICATES FEW OR NO CLOUDS BELOW 12,000 FEET WITH NO
SIGNIFICANT WEATHER AND/OR OBSTRUCTIONS TO VISIBILITY. WIND
SPEEDS ARE IN MILES-PER-HOUR.



USA.gov is the U.S. government's official web portal to all federal, state and local government web resources and services.